status,avgMeasuredTime,avgSpeed,extID,medianMeasuredTime,TIMESTAMP,vehicleCount,_id,REPORT_ID
OK,66,56,668,66,2014-02-13T11:30:00,7,190000,158324
OK,69,53,668,69,2014-02-13T11:35:00,5,190449,158324
OK,69,53,668,69,2014-02-13T11:40:00,6,190898,158324
OK,70,52,668,70,2014-02-13T11:45:00,3,191347,158324
OK,64,57,668,64,2014-02-13T11:50:00,6,191796,158324
OK,75,49,668,75,2014-02-13T11:55:00,9,192245,158324
OK,73,50,668,73,2014-02-13T12:00:00,11,192694,158324
OK,59,62,668,59,2014-02-13T12:05:00,8,193143,158324
OK,61,60,668,61,2014-02-13T12:10:00,10,193592,158324
OK,63,58,668,63,2014-02-13T12:15:00,12,194041,158324
OK,62,59,668,62,2014-02-13T12:20:00,16,194490,158324
OK,62,59,668,62,2014-02-13T12:25:00,16,194939,158324
OK,59,62,668,59,2014-02-13T12:30:00,8,195388,158324
OK,67,55,668,67,2014-02-13T12:35:00,9,195837,158324
OK,65,57,668,65,2014-02-13T12:40:00,8,196286,158324
OK,60,61,668,60,2014-02-13T12:45:00,7,196735,158324
OK,61,60,668,61,2014-02-13T12:50:00,11,197184,158324
OK,58,63,668,58,2014-02-13T12:55:00,8,197633,158324
OK,70,52,668,70,2014-02-13T13:00:00,8,198082,158324
OK,61,60,668,61,2014-02-13T13:05:00,9,198531,158324
OK,60,61,668,60,2014-02-13T13:10:00,5,198980,158324
OK,64,57,668,64,2014-02-13T13:15:00,3,199429,158324
OK,63,58,668,63,2014-02-13T13:20:00,7,199878,158324
OK,63,58,668,63,2014-02-13T13:25:00,7,200327,158324
OK,65,57,668,65,2014-02-13T13:30:00,1,200776,158324
OK,61,60,668,61,2014-02-13T13:35:00,6,201225,158324
OK,67,55,668,67,2014-02-13T13:40:00,12,201674,158324
OK,68,54,668,68,2014-02-13T13:45:00,17,202123,158324
OK,56,66,668,56,2014-02-13T13:50:00,10,202572,158324
OK,52,71,668,52,2014-02-13T13:55:00,7,203021,158324
OK,59,62,668,59,2014-02-13T14:00:00,9,203470,158324
OK,68,54,668,68,2014-02-13T14:05:00,11,203919,158324
OK,62,59,668,62,2014-02-13T14:10:00,11,204368,158324
OK,62,59,668,62,2014-02-13T14:15:00,13,204817,158324
OK,65,57,668,65,2014-02-13T14:20:00,10,205266,158324
OK,57,65,668,57,2014-02-13T14:25:00,3,205715,158324
OK,75,49,668,75,2014-02-13T14:30:00,12,206164,158324
OK,66,56,668,66,2014-02-13T14:35:00,7,206613,158324
OK,68,54,668,68,2014-02-13T14:40:00,7,207062,158324
OK,69,53,668,69,2014-02-13T14:45:00,14,207511,158324
OK,72,51,668,72,2014-02-13T14:50:00,8,207960,158324
OK,73,50,668,73,2014-02-13T14:55:00,5,208409,158324
OK,68,54,668,68,2014-02-13T15:00:00,6,208858,158324
OK,65,57,668,65,2014-02-13T15:05:00,10,209307,158324
OK,62,59,668,62,2014-02-13T15:10:00,7,209756,158324
OK,62,59,668,62,2014-02-13T15:15:00,5,210205,158324
OK,66,56,668,66,2014-02-13T15:20:00,8,210654,158324
OK,67,55,668,67,2014-02-13T15:25:00,7,211103,158324
OK,64,57,668,64,2014-02-13T15:30:00,6,211552,158324
OK,67,55,668,67,2014-02-13T15:35:00,8,212001,158324
OK,67,55,668,67,2014-02-13T15:40:00,8,212450,158324
OK,61,60,668,61,2014-02-13T15:45:00,5,212899,158324
OK,67,55,668,67,2014-02-13T15:50:00,9,213348,158324
OK,62,59,668,62,2014-02-13T15:55:00,12,213797,158324
OK,62,59,668,62,2014-02-13T16:00:00,5,214246,158324
OK,53,69,668,53,2014-02-13T16:05:00,3,214695,158324
OK,74,50,668,74,2014-02-13T16:10:00,7,215144,158324
OK,74,50,668,74,2014-02-13T16:15:00,7,215593,158324
OK,65,57,668,65,2014-02-13T16:20:00,7,216042,158324
OK,65,57,668,65,2014-02-13T16:25:00,7,216491,158324
OK,69,53,668,69,2014-02-13T16:30:00,4,216940,158324
OK,63,58,668,63,2014-02-13T16:35:00,5,217389,158324
OK,58,63,668,58,2014-02-13T16:40:00,6,217838,158324
OK,58,63,668,58,2014-02-13T16:45:00,6,218287,158324
OK,59,62,668,59,2014-02-13T16:50:00,5,218736,158324
OK,59,62,668,59,2014-02-13T16:55:00,7,219185,158324
OK,63,58,668,63,2014-02-13T17:00:00,6,219634,158324
OK,60,61,668,60,2014-02-13T17:05:00,7,220083,158324
OK,60,61,668,60,2014-02-13T17:10:00,4,220532,158324
OK,52,71,668,52,2014-02-13T17:15:00,3,220981,158324
OK,52,71,668,52,2014-02-13T17:20:00,3,221430,158324
OK,60,61,668,60,2014-02-13T17:25:00,4,221879,158324
OK,64,57,668,64,2014-02-13T17:30:00,7,222328,158324
OK,65,57,668,65,2014-02-13T17:35:00,4,222777,158324
OK,64,57,668,64,2014-02-13T17:40:00,0,223226,158324
OK,80,46,668,80,2014-02-13T17:45:00,4,223675,158324
OK,75,49,668,75,2014-02-13T17:50:00,5,224124,158324
OK,80,46,668,80,2014-02-13T17:55:00,2,224573,158324
OK,58,63,668,58,2014-02-13T18:00:00,1,225022,158324
OK,59,62,668,59,2014-02-13T18:05:00,2,225471,158324
OK,61,60,668,61,2014-02-13T18:10:00,1,225920,158324
OK,61,60,668,61,2014-02-13T18:15:00,0,226369,158324
OK,63,58,668,63,2014-02-13T18:20:00,1,226818,158324
OK,57,65,668,57,2014-02-13T18:25:00,2,227267,158324
OK,68,54,668,68,2014-02-13T18:30:00,1,227716,158324
OK,68,54,668,68,2014-02-13T18:35:00,1,228165,158324
OK,45,82,668,45,2014-02-13T18:40:00,2,228614,158324
OK,44,84,668,44,2014-02-13T18:45:00,3,229063,158324
OK,60,61,668,60,2014-02-13T18:50:00,1,229512,158324
OK,58,63,668,58,2014-02-13T18:55:00,2,229961,158324
OK,60,61,668,60,2014-02-13T19:00:00,3,230410,158324
OK,72,51,668,72,2014-02-13T19:05:00,3,230859,158324
OK,82,45,668,82,2014-02-13T19:10:00,1,231308,158324
OK,82,45,668,82,2014-02-13T19:15:00,0,231757,158324
OK,64,57,668,64,2014-02-13T19:20:00,1,232206,158324
OK,64,57,668,64,2014-02-13T19:25:00,1,232655,158324
OK,64,57,668,64,2014-02-13T19:30:00,0,233104,158324
OK,71,52,668,71,2014-02-13T19:35:00,1,233553,158324
OK,71,52,668,71,2014-02-13T19:40:00,0,234002,158324
OK,71,52,668,71,2014-02-13T19:45:00,0,234451,158324
OK,59,62,668,59,2014-02-13T19:50:00,1,234900,158324
OK,59,62,668,59,2014-02-13T19:55:00,0,235349,158324
OK,59,62,668,59,2014-02-13T20:00:00,0,235798,158324
OK,59,62,668,59,2014-02-13T20:05:00,0,236247,158324
OK,59,62,668,59,2014-02-13T20:10:00,0,236696,158324
OK,59,62,668,59,2014-02-13T20:15:00,0,237145,158324
OK,59,62,668,59,2014-02-13T20:20:00,0,237594,158324
OK,59,62,668,59,2014-02-13T20:25:00,0,238043,158324
OK,59,62,668,59,2014-02-13T20:30:00,0,238492,158324
OK,59,62,668,59,2014-02-13T20:35:00,0,238941,158324
OK,59,62,668,59,2014-02-13T20:40:00,0,239390,158324
OK,61,60,668,61,2014-02-13T20:45:00,1,239839,158324
OK,55,67,668,55,2014-02-13T20:50:00,1,240288,158324
OK,55,67,668,55,2014-02-13T20:55:00,1,240737,158324
OK,55,67,668,55,2014-02-13T21:00:00,0,241186,158324
OK,58,63,668,58,2014-02-13T21:05:00,1,241603,158324
OK,67,55,668,67,2014-02-13T21:10:00,3,242052,158324
OK,68,54,668,68,2014-02-13T21:15:00,2,242501,158324
OK,56,66,668,56,2014-02-13T21:20:00,1,242876,158324
OK,56,66,668,56,2014-02-13T21:25:00,3,243325,158324
OK,62,59,668,62,2014-02-13T21:30:00,2,243696,158324
OK,66,56,668,66,2014-02-13T21:35:00,2,244068,158324
OK,58,63,668,58,2014-02-13T21:40:00,2,244517,158324
OK,55,67,668,55,2014-02-13T21:45:00,1,244952,158324
OK,55,67,668,55,2014-02-13T21:50:00,0,245327,158324
OK,55,67,668,55,2014-02-13T21:55:00,0,245776,158324
OK,55,67,668,55,2014-02-13T22:00:00,0,246149,158324
OK,55,67,668,55,2014-02-13T22:05:00,0,246598,158324
OK,55,67,668,55,2014-02-13T22:10:00,0,247047,158324
OK,55,67,668,55,2014-02-13T22:15:00,0,247430,158324
OK,71,52,668,71,2014-02-13T22:20:00,2,247796,158324
OK,58,63,668,58,2014-02-13T22:25:00,3,248179,158324
OK,54,68,668,54,2014-02-13T22:30:00,0,248555,158324
OK,54,68,668,54,2014-02-13T22:35:00,0,248930,158324
OK,54,68,668,54,2014-02-13T22:40:00,0,249379,158324
OK,54,68,668,54,2014-02-13T22:45:00,0,249736,158324
OK,54,68,668,54,2014-02-13T22:50:00,0,250097,158324
OK,54,68,668,54,2014-02-13T22:55:00,0,250546,158324
OK,54,68,668,54,2014-02-13T23:00:00,0,250995,158324
OK,54,68,668,54,2014-02-13T23:05:00,0,251393,158324
OK,54,68,668,54,2014-02-13T23:10:00,0,251842,158324
OK,54,68,668,54,2014-02-13T23:15:00,0,252291,158324
OK,54,68,668,54,2014-02-13T23:20:00,0,252681,158324
OK,43,86,668,43,2014-02-13T23:25:00,1,253070,158324
OK,43,86,668,43,2014-02-13T23:30:00,0,253462,158324
OK,43,86,668,43,2014-02-13T23:35:00,0,253851,158324
OK,43,86,668,43,2014-02-13T23:40:00,0,254209,158324
OK,43,86,668,43,2014-02-13T23:45:00,0,254654,158324
OK,43,86,668,43,2014-02-13T23:50:00,0,254973,158324
OK,43,86,668,43,2014-02-13T23:55:00,0,255347,158324